Regional Weather Roundup
Issued by NWS

Home | Current Version | Previous Version | Text Only | Print | Product List | Glossary Off
Versions: 1 2 3 4 5 6 7 8 9 10 11 12 13 14 15 16 17 18 19 20 21 22 23 24 25 26 27 28 29 30 31 32 33 34 35 36 37 38 39 40 41 42 43 44 45 46 47 48 49 50

564
ASUS44 KMEG 231200
RWRTN
TENNESSEE HOURLY STATE WEATHER ROUNDUP
NATIONAL WEATHER SERVICE MEMPHIS TN
700 AM CDT WED AUG 23 2017

TNZ002-004-019-021-049-052-054-088>092-231300-
WEST TENNESSEE

CITY           SKY/WX    TMP DP  RH WIND       PRES   REMARKS
MEMPHIS INTL   PTCLDY    76  72  87 NE6       30.02R
NWS MEMPHIS      N/A     74 N/A N/A MISG        N/A
JACKSON        CLOUDY    72  71  97 N3        30.05R
DYERSBURG      CLOUDY    70  65  84 NE7       30.06R
$$

TNZ008-025-027-028-033-062-065-066-231300-
NORTH MIDDLE TENNESSEE

CITY           SKY/WX    TMP DP  RH WIND       PRES   REMARKS
NASHVILLE      MOCLDY    71  68  90 NW6       30.03R
CLARKSVILLE    MOCLDY    67  64  90 N3        30.04R
SMYRNA         MOCLDY    71  69  93 NW6       30.03S
CROSSVILLE     CLOUDY    69  66  90 N5        30.05R
$$

TNZ061-075-076-078-094-096-097-231300-
SOUTH MIDDLE TENNESSEE

CITY           SKY/WX    TMP DP  RH WIND       PRES   REMARKS
$$

TNZ017-018-042-046-047-231300-
NORTHEAST TENNESSEE

CITY           SKY/WX    TMP DP  RH WIND       PRES   REMARKS
TRI CITIES     CLOUDY    73  69  87 W5        29.99R
$$

TNZ012-013-036-069-073-074-231300-
CENTRAL EAST TENNESSEE

CITY           SKY/WX    TMP DP  RH WIND       PRES   REMARKS
KNOXVILLE      CLOUDY    74  68  81 N7        29.98R
OAK RIDGE      CLOUDY    74  69  85 CALM      30.00R
GATLINBURG     CLOUDY    73  68  83 W5        29.97R
$$

TNZ083-085-099-231300-
SOUTHEAST TENNESSEE

CITY           SKY/WX    TMP DP  RH WIND       PRES   REMARKS
CHATTANOOGA    MOCLDY    76  69  79 NW5       29.99R
$$

SKY/WX REPORTED AS FAIR MEANS FEW OR NO CLOUDS BELOW
12 THOUSAND FEET.





USA.gov is the U.S. government's official web portal to all federal, state and local government web resources and services.